Regional Weather Roundup
Issued by NWS

Home | Current Version | Previous Version | Graphics & Text | Print | Product List | Glossary Off
Versions: 1 2 3 4 5 6 7 8 9 10 11 12 13 14 15 16 17 18 19 20 21 22 23 24 25 26 27 28 29 30 31 32 33 34 35 36 37 38 39 40 41 42 43 44 45 46 47 48 49 50

763
ASUS43 KDTX 221610
RWRMI
MICHIGAN HOURLY REGIONAL WEATHER ROUNDUP
NATIONAL WEATHER SERVICE DETROIT/PONTIAC MI
1200 PM EDT MON MAY 22 2017

NOTE: "FAIR" INDICATES FEW OR NO CLOUDS BELOW 12,000 FEET WITH NO
SIGNIFICANT WEATHER AND/OR OBSTRUCTION TO VISIBILITY.

MIZ047>049-052>055-059>063-066>070-074>076-081>083-221700-
SOUTHEAST LOWER MICHIGAN

CITY           SKY/WX    TMP DP  RH WIND       PRES   REMARKS
ADRIAN         MOSUNNY   60  43  53 W13G21    30.04R
ALMA           PTSUNNY   57  42  56 W14G24    29.95S
ANN ARBOR      MOSUNNY   60  46  59 SW15G22   30.01R
BAD AXE        CLOUDY    53  42  67 W23G29    29.93S
CARO           PTSUNNY   56  45  65 SW16G22   29.94S
DETROIT CITY   PTSUNNY   59  44  57 SW16G22   30.00S
DETROIT        MOSUNNY   61  44  53 W20G25    30.02R
FLINT          MOSUNNY   58  42  55 W16G26    29.97S
GROSSE ILE     MOSUNNY   60  45  57 SW12G20   30.02R
HILLSDALE      MOSUNNY   59  41  51 W12G17    30.02S
HOWELL         PTSUNNY   58  41  53 SW18      29.99R

CITY           SKY/WX    TMP DP  RH WIND       PRES   REMARKS
JACKSON        SUNNY     59  43  55 W15G25    30.00S
LAMBERTVILLE   CLOUDY    61  45  55 W13G18    30.03S
LANSING        SUNNY     59  39  47 W22G28    29.98S
LAPEER         CLOUDY    57  41  55 W13G21    29.97S
MASON          MOSUNNY   59  44  57 W10G18    29.99S
MONROE         MOSUNNY   61  46  56 SW15G23   30.02S
MT. CLEMENS    PTSUNNY   59  46  61 SW10G24   29.98S
PONTIAC        PTSUNNY   56  42  59 SW13G21   29.97S
PORT HOPE        N/A     53  44  71 SW8G18    29.90S
PORT HURON     CLOUDY    57  41  54 SW8       29.97S
TRI CITIES     PTSUNNY   56  42  59 W22G28    29.95S
MIDLAND        CLOUDY    54  38  55 W16G23    29.93S
TROY           PTSUNNY   59  41  51 SW10G18   30.01S
SAGINAW HB     PTSUNNY   57  37  47 SW20G29   29.94S
$$
MIZ043>046-050>051-056>058-064>065-071>073-077>080-221700-
SOUTHWEST LOWER MICHIGAN

CITY           SKY/WX    TMP DP  RH WIND       PRES   REMARKS
BATTLE CREEK   SUNNY     62  42  47 W15G26    30.01R
BENTON HARBOR    N/A     59  41  51 MISG      30.03F
BIG RAPIDS     PTSUNNY   55  39  55 W17G30    29.92S
COLDWATER      SUNNY     61  44  53 W16       30.03S
FREMONT        FAIR      57  39  50 W18G24    29.95S
HOLLAND        SUNNY     57  44  62 W18       29.99F
GRAND RAPIDS   MOSUNNY   59  43  55 W18G26    29.97S
IONIA          FAIR      59  41  50 W13G29    29.95F
KALAMAZOO      SUNNY     61  40  45 W16G23    30.02S
LUDINGTON      MOSUNNY   52  44  75 SW18G24   29.93F
MARSHALL       SUNNY     60  42  51 W13       30.01R
MOUNT PLEASANT PTSUNNY   56  40  55 W15G21    29.93F
MUSKEGON       MOSUNNY   56  43  61 SW14      29.97F
SOUTH HAVEN    SUNNY     56  42  59 SW15      30.02F
$$
MIZ016>042-221700-
NORTHERN LOWER MICHIGAN

CITY           SKY/WX    TMP DP  RH WIND       PRES   REMARKS
ALPENA         CLOUDY    53  44  71 SW14G24   29.85R
BEAVER ISLAND  CLOUDY    46  45  95 SW14G23   29.82R
BELLAIRE       CLOUDY    50  42  74 SW10G17   29.87S
CADILLAC       PTSUNNY   47  42  82 SW16G23   29.89S
CHARLEVOIX     CLOUDY    48  46  93 SW12G22   29.87S
FRANKFORT      CLOUDY    49  41  73 SW9G17    29.90R
GAYLORD        CLOUDY    48  41  76 SW21      29.85R
GRAYLING       CLOUDY    48  41  77 SW12G21   29.88S
HARBOR SPRINGS CLOUDY    46  46  99 SW14      29.84R
HOUGHTON LAKE  CLOUDY    49  41  74 W17G24    29.90R
MANISTEE       PTSUNNY   53  42  66 W18G26    29.91S
OSCODA         CLOUDY    56  42  60 SW18G28   29.88R
PELLSTON       LGT RAIN  48  44  86 W10G24    29.83S FOG
ROGERS CITY    CLOUDY    54  45  72 W17G23    29.83S
TRAVERSE CITY  CLOUDY    52  42  69 W10G23    29.87R
$$
MIZ007>008-015-221700-
EASTERN UPPER MICHIGAN

CITY           SKY/WX    TMP DP  RH WIND       PRES   REMARKS
KINROSS        LGT RAIN  47  46  97 SW8       29.79R FOG
MACKINAC ISLAN LGT RAIN  46  46 100 SW12G28   29.80S
NEWBERRY       CLOUDY    50  49  97 SW7       29.76S FOG
S. S. MARIE    LGT RAIN  50  47  89 SW5       29.77S
MUNISING         N/A     52  47  83 NW7       29.76R
$$
MIZ004>006-011>014-085-221700-
CENTRAL UPPER MICHIGAN

CITY           SKY/WX    TMP DP  RH WIND       PRES   REMARKS
MANISTIQUE     CLOUDY    50  47  88 SW7       29.78S
ESCANABA       CLOUDY    52  46  80 W13       29.80S
MENOMINEE      PTSUNNY   55  42  61 W10G16    29.85R
SAWYER-GWINN   CLOUDY    50  45  81 W9        29.77S
$$
MIZ001>003-009>011-084-221700-
WESTERN UPPER MICHIGAN

CITY           SKY/WX    TMP DP  RH WIND       PRES   REMARKS
IRON MOUNTAIN  CLOUDY    51  40  65 W9G18     29.79R
HOUGHTON       CLOUDY    50  45  83 W15G23    29.72S
COPPER HARBOR    N/A     51  45  79 NW8       29.72R
IRONWOOD       CLOUDY    51  43  74 SW13G18   29.76F
$$

ABBREVIATIONS USED IN REMARKS
   TC - TEMPERATURE IN CELSIUS
  WCI - WIND CHILL INDEX
   HX - HEAT INDEX
  VSB - VISIBILITY





USA.gov is the U.S. government's official web portal to all federal, state and local government web resources and services.